Portada
METAR-TAF:

METAR-TAF

Aeroports :

Central Park

Nova York, Nova York, Estats Units d'Amèrica

latitud: 40-47-00N, longitud: 073-58-00W, altitud: 47 m

Observació

L'informe es va fer fa 36 minuts, a les 10:51 UTC
Vent 3 kt del Sud-Oest amb ràfegues de 14 kt
Temperatura 13°C
Humitat 62%
Pressió 1006 hPa
Visibilitat: 16.1 km
Cel clar

METAR: KNYC 121051Z 23003G14KT 10SM CLR 13/06 A2972 RMK AO2 SLP053 T01330056 $

Hora: 06:27 (11:27 UTC)


TAF: manca

Observacions i pronòstics meteorològics de més de 4000 aeroports (METAR i TAF).

Les estacions disponibles són els punts grocs i vermells al mapa.

Posi el ratolí al punt desitjat per veure el nom de l'estació.

Feu clic per veure les observacions i els pronòstics meteorològics.

Per canviar el mapa: feu clic els botons verds amb una creu de color negre per apropar; al botó verd amb un guió per allunyar la imatge; o en les fletxes verdes per a mapes adjacents.


METAR-TAF: